Back to catalog

STARLINK-38083

AliveCommunicationsSSO
NORAD 100385·PAYLOAD·🇺🇸 United States

Launched Aug 19, 2026 from Vandenberg Space Force Base

Loading…

Next Passes (next 24 hours)

TLE

FreshSource: Space-Track

Epoch: Sep 14, 2026, 12:50 UTC

1 A0385U 26190Q   26257.53537128  .00180149  00000-0  11908-2 0  9994
2 A0385  97.2850 111.5503 0004304 172.1616 187.9717 15.75036228  5431

Track STARLINK-38083 in real time with AllMySat

Download on the App Store